sat.trackr.live / text

‹ back to catalog

STARLINK-38085

NORAD 69996 · 2026-159X

PAYLOAD ACTIVE UNKNOWN

§ Identity

Operator
Country
US
Launch date
2026-07-11
Launch site
AFWTR
Launch vehicle
Mass (kg)
RCS (m²)

Purposes: comms

External: N2YO · Heavens-Above · Gunter

§ Orbital elements

Epoch: 2026-09-19T18:59:41.029440Z

Period
92.95 min
Inclination
97.2855°
Eccentricity
0.0001880
Mean motion
15.49219428 rev/d
Perigee alt
417.7 km
Apogee alt
420.3 km
Semi-major
6,797.1 km
B*
6.6462e-4
RAAN
104.5438°
Arg perigee
100.9880°
Mean anomaly
259.1583°
Rev number
1,233

§ Raw data

STARLINK-380851 69996U 26159X   26262.79144710  .00036263  00000+0  66462-3 0  99992 69996  97.2855 104.5438 0001880 100.9880 259.1583 15.49219428 12332

JSON: /api/v1/satellites/69996 · /tle

For live sub-satellite position, see the globe view (requires WebGL).

§ Visibility from observer

Set your observer location to see the next 7 days of passes ≥ 10°. The values pass through the URL so the page stays shareable.

No JS? Fill the form by hand. The geolocation button needs JavaScript.